| time (UTC) | temp F | wind direction | speed MPH | gust MPH | rain 1hr in | rain 24hr in | rain mn in | humidity % | barometer mb |
| 20260504150816 | 64 | 242 | 0.0 | 6.0 | 0.00 | 0.00 | 0.00 | 40 | 1012.8 |
| 20260504140815 | 60 | 0.0 | 0.0 | 0.00 | 0.00 | 0.00 | 48 | 1013.0 | |
| 20260504130815 | 55 | 0.0 | 0.0 | 0.00 | 0.00 | 0.00 | 54 | 1013.5 | |
| 20260504100337 | 0 | 0.0 | 0.0 | 0.00 | 0.00 | 0.00 | |||
| 20260504081915 | 47 | 0.0 | 0.0 | 0.00 | 0.00 | 0.00 | 55 | 1013.1 | |
| 20260504080916 | 47 | 0.0 | 0.0 | 0.00 | 0.00 | 0.00 | 55 | 1013.1 | |
| 20260504045917 | 49 | 0.0 | 0.0 | 0.00 | 0.00 | 0.00 | 51 | 1012.6 | |
| 20260504044915 | 49 | 0.0 | 0.0 | 0.00 | 0.00 | 0.00 | 51 | 1012.5 | |
| 20260504043915 | 49 | 0.0 | 0.0 | 0.00 | 0.00 | 0.00 | 50 | 1012.5 | |
| 20260504042915 | 49 | 0.0 | 0.0 | 0.00 | 0.00 | 0.00 | 50 | 1012.4 | |
| 20260504041915 | 49 | 0.0 | 0.0 | 0.00 | 0.00 | 0.00 | 50 | 1012.2 | |
| 20260504040915 | 49 | 0.0 | 0.0 | 0.00 | 0.00 | 0.00 | 49 | 1012.1 | |
| 20260504040515 | 49 | 0.0 | 0.0 | 0.00 | 0.00 | 0.00 | 50 | 1012.1 | |
| 20260504035535 | 50 | 0.0 | 0.0 | 0.00 | 0.00 | 0.00 | 49 | 1012.1 | |
| 20260504034536 | 50 | 0.0 | 0.0 | 0.00 | 0.00 | 0.00 | 48 | 1012.1 | |
| 20260504033515 | 49 | 0.0 | 0.0 | 0.00 | 0.00 | 0.00 | 50 | 1012.1 | |
| 20260504032516 | 50 | 0.0 | 0.0 | 0.00 | 0.00 | 0.00 | 48 | 1012.2 | |
| 20260504031515 | 50 | 0.0 | 0.0 | 0.00 | 0.00 | 0.00 | 48 | 1012.1 | |
| 20260504030515 | 50 | 0.0 | 0.0 | 0.00 | 0.00 | 0.00 | 48 | 1012.1 | |
| 20260504025515 | 50 | 0.0 | 0.0 | 0.00 | 0.00 | 0.00 | 47 | 1012.1 | |
| 20260504024515 | 49 | 0.0 | 0.0 | 0.00 | 0.00 | 0.00 | 49 | 1012.0 | |
| 20260504023515 | 49 | 0.0 | 0.0 | 0.00 | 0.00 | 0.00 | 48 | 1012.1 | |
| 20260504022515 | 49 | 0.0 | 0.0 | 0.00 | 0.00 | 0.00 | 48 | 1012.0 | |
| 20260504021515 | 49 | 0.0 | 0.0 | 0.00 | 0.00 | 0.00 | 47 | 1012.1 | |
| 20260504020535 | 49 | 0.0 | 0.0 | 0.00 | 0.00 | 0.00 | 48 | 1012.1 | |
| 20260504015535 | 49 | 0.0 | 0.0 | 0.00 | 0.00 | 0.00 | 48 | 1012.1 | |
| 20260504014515 | 49 | 0.0 | 0.0 | 0.00 | 0.00 | 0.00 | 48 | 1011.9 | |
| 20260504013515 | 49 | 0.0 | 0.0 | 0.00 | 0.00 | 0.00 | 46 | 1011.9 | |
| 20260504012515 | 50 | 0.0 | 0.0 | 0.00 | 0.00 | 0.00 | 49 | 1011.9 | |
| 20260504011515 | 50 | 0.0 | 0.0 | 0.00 | 0.00 | 0.00 | 45 | 1011.8 | |
| 20260504010515 | 51 | 0.0 | 0.0 | 0.00 | 0.00 | 0.00 | 47 | 1011.7 | |
| 20260504005515 | 51 | 0.0 | 0.0 | 0.00 | 0.00 | 0.00 | 44 | 1011.5 | |
| 20260504004515 | 52 | 0.0 | 0.0 | 0.00 | 0.00 | 0.00 | 43 | 1011.5 | |
| 20260504003515 | 53 | 0.0 | 0.0 | 0.00 | 0.00 | 0.00 | 39 | 1011.3 | |
| 20260504002535 | 53 | 0.0 | 0.0 | 0.00 | 0.00 | 0.00 | 39 | 1011.2 | |
| 20260504001515 | 54 | 0.0 | 0.0 | 0.00 | 0.00 | 0.00 | 38 | 1011.0 | |
| 20260504000535 | 54 | 0.0 | 0.0 | 0.00 | 0.00 | 0.00 | 38 | 1010.9 | |
| 20260503221515 | 58 | 0.0 | 2.0 | 0.00 | 0.00 | 0.00 | 29 | ||
| 20260503220515 | 58 | 301 | 2.0 | 5.0 | 0.00 | 0.00 | 0.00 | 29 | |
| 20260503215535 | 59 | 0.0 | 0.0 | 0.00 | 0.00 | 0.00 | 29 | ||
| 20260503214515 | 58 | 355 | 2.0 | 6.0 | 0.00 | 0.00 | 0.00 | 29 | |
| 20260503213517 | 58 | 267 | 0.0 | 3.0 | 0.00 | 0.00 | 0.00 | 29 | |
| 20260503212517 | 58 | 0.0 | 0.0 | 0.00 | 0.00 | 0.00 | 29 | ||
| 20260503211537 | 58 | 352 | 1.0 | 4.0 | 0.00 | 0.00 | 0.00 | 29 | 1010.1 |
| 20260503210517 | 58 | 314 | 1.0 | 8.0 | 0.00 | 0.00 | 0.00 | 29 | 1010.0 |
| 20260503205517 | 58 | 302 | 1.0 | 5.0 | 0.00 | 0.00 | 0.00 | 28 | 1009.9 |
| 20260503204517 | 58 | 308 | 1.0 | 6.0 | 0.00 | 0.00 | 0.00 | 30 | 1010.2 |
| 20260503203536 | 58 | 279 | 0.0 | 3.0 | 0.00 | 0.00 | 0.00 | 31 | 1010.2 |
| 20260503202517 | 57 | 336 | 1.0 | 3.0 | 0.00 | 0.00 | 0.00 | 32 | 1010.1 |
| 20260503201536 | 57 | 348 | 1.0 | 5.0 | 0.00 | 0.00 | 0.00 | 31 | 1010.2 |
| 20260503200517 | 57 | 0.0 | 2.0 | 0.00 | 0.00 | 0.00 | 31 | 1010.3 | |
| 20260503195517 | 57 | 358 | 1.0 | 3.0 | 0.00 | 0.00 | 0.00 | 31 | 1010.4 |
| 20260503194516 | 57 | 0.0 | 5.0 | 0.00 | 0.00 | 0.00 | 31 | 1010.4 | |
| 20260503193516 | 57 | 238 | 0.0 | 2.0 | 0.00 | 0.00 | 0.00 | 32 | 1010.3 |
| 20260503192517 | 57 | 0.0 | 1.0 | 0.00 | 0.00 | 0.00 | 35 | 1010.5 | |
| 20260503191516 | 56 | 353 | 1.0 | 5.0 | 0.00 | 0.00 | 0.00 | 34 | 1010.6 |
| 20260503190516 | 56 | 334 | 4.0 | 7.0 | 0.00 | 0.00 | 0.00 | 33 | 1010.7 |
| 20260503185517 | 55 | 0.0 | 0.0 | 0.00 | 0.00 | 0.00 | 34 | 1010.8 | |
| 20260503184517 | 55 | 0.0 | 0.0 | 0.00 | 0.00 | 0.00 | 35 | 1010.7 | |
| 20260503184316 | 55 | 159 | 2.0 | 8.0 | 0.00 | 0.00 | 0.00 | 34 | 1010.8 |
| 20260503183316 | 56 | 0.0 | 0.0 | 0.00 | 0.00 | 0.00 | 35 | 1010.9 | |
| 20260503182316 | 55 | 0.0 | 3.0 | 0.00 | 0.00 | 0.00 | 35 | 1010.8 | |
| 20260503181315 | 55 | 0.0 | 4.0 | 0.00 | 0.00 | 0.00 | 37 | 1010.9 | |
| 20260503180315 | 54 | 37 | 1.0 | 8.0 | 0.00 | 0.00 | 0.00 | 38 | 1011.0 |
| 20260503175315 | 54 | 273 | 0.0 | 4.0 | 0.00 | 0.00 | 0.00 | 38 | 1011.1 |
| 20260503174315 | 54 | 269 | 0.0 | 1.0 | 0.00 | 0.00 | 0.00 | 38 | 1011.3 |
| 20260503173315 | 53 | 6 | 0.0 | 3.0 | 0.00 | 0.00 | 0.00 | 39 | 1011.2 |
| 20260503172315 | 53 | 309 | 2.0 | 9.0 | 0.00 | 0.00 | 0.00 | 38 | 1011.2 |
| 20260503171316 | 53 | 246 | 1.0 | 4.0 | 0.00 | 0.00 | 0.00 | 40 | 1011.4 |
| 20260503170315 | 52 | 277 | 0.0 | 2.0 | 0.00 | 0.00 | 0.00 | 41 | 1011.4 |